Temp
14 15 15 15 16 16 16 17 17 18 18 18 18 18 19 20 21 20 20 22 24 22 22 21 22 23 24 25 26 27 28 28 29 30 30 30 30 29 28 28 27 27 26 25 23
13 14 14 15 16 15 15 16 16 17 17 18 18 18 19 19 20 20 22 22 23 24 21 22 23 24 25 25 27 27 28 28 31 31 30 29 30 30 29 28 28 26 25 23 22
13 13 14 14 14 15 15 16 16 16 17 17 18 18 18 18 19 24 24 23 23 23 22 23 25 25 26 27 27 28 27 29 29 29 29 29 29 29 29 29 29 28 27 24 23
13 13 13 13 14 14 15 16 16 16 16 16 16 17 17 17 23 23 23 23 22 21 21 24 25 26 27 28 28 28 28 28 28 28 29 29 29 29 28 28 28 27 26 25 24
12 12 13 13 13 14 14 15 15 15 15 15 15 15 15 17 19 21 21 22 21 19 20 24 25 26 27 28 28 28 28 27 28 28 29 28 28 28 28 28 27 26 25 25 24
7 9 10 11 12 13 13 13 14 14 14 15 14 14 14 16 20 21 21 21 20 19 21 23 25 26 27 28 28 28 28 28 29 29 28 28 28 27 28 27 26 26 25 25 24
4 4 6 10 11 12 12 13 13 13 13 13 13 13 13 17 20 21 21 21 21 21 22 23 24 26 26 27 28 28 28 29 29 29 29 28 27 28 27 27 27 26 24 24 24
4 4 4 5 9 10 12 13 13 13 14 14 13 13 14 18 19 20 21 21 21 22 22 23 23 24 26 27 28 28 29 27 29 30 29 27 26 29 28 27 26 26 26 25 24
4 4 4 4 4 7 10 13 13 13 14 14 13 12 17 19 18 20 21 22 22 22 22 23 24 24 26 27 27 27 26 27 28 30 29 28 27 29 28 28 27 27 26 25 24
3 3 4 4 4 5 9 11 12 13 13 12 13 14 16 20 21 20 21 21 22 22 22 22 24 26 27 27 25 27 27 28 28 30 28 28 27 29 28 28 27 27 26 26 24
3 3 3 3 4 4 6 8 12 11 12 16 18 17 22 21 21 21 21 22 22 23 23 24 25 25 26 27 28 28 28 28 29 30 29 28 27 28 29 28 28 28 27 26 24
3 3 2 3 4 4 5 8 14 10 14 15 16 18 19 20 21 21 21 22 22 24 25 26 24 27 28 28 28 28 28 28 28 29 28 27 27 28 29 28 28 28 27 26 24
3 3 3 3 3 4 5 10 10 10 14 17 18 18 19 20 21 22 22 22 24 24 25 25 27 28 28 28 28 28 27 27 27 28 28 27 26 28 29 29 28 28 27 26 24
4 3 3 3 5 6 9 9 9 10 16 20 21 20 20 20 21 21 23 23 25 25 26 27 28 28 27 27 28 27 28 28 27 26 25 28 25 27 28 29 29 28 27 26 24
3 3 3 3 4 7 9 8 9 10 17 26 25 22 22 21 24 22 22 23 25 26 26 26 27 28 27 28 29 27 28 28 27 26 26 26 26 27 29 28 28 29 28 26 24
3 3 3 3 3 5 6 8 9 14 17 23 24 22 24 22 23 26 22 23 24 26 27 28 29 29 29 29 28 29 28 27 27 26 24 26 26 27 28 28 28 29 28 26 24
3 2 3 3 5 5 5 8 12 15 22 24 23 23 24 23 23 25 24 24 24 24 25 27 28 29 30 28 28 28 26 24 23 24 24 27 26 27 28 29 29 28 28 26 24
2 2 2 3 4 5 5 10 12 18 21 26 25 24 23 25 23 24 24 24 25 25 26 26 26 28 29 28 27 27 26 25 22 24 26 27 25 27 29 29 28 27 26 25 23
2 2 2 3 4 4 4 7 12 18 22 23 25 23 23 25 25 24 25 24 25 26 26 26 27 29 28 28 29 27 25 27 26 26 26 27 28 28 28 28 28 27 25 24 22
2 2 3 4 3 4 3 7 13 17 19 22 22 24 23 25 24 24 24 26 26 26 28 28 26 29 28 28 28 28 28 25 26 23 23 26 27 27 27 28 28 27 25 23 22
2 1 4 4 3 2 3 6 11 13 16 16 18 21 24 25 25 25 26 27 27 27 27 28 27 28 28 26 27 27 27 26 27 26 25 25 27 29 28 28 28 27 25 23 22
0 3 6 4 3 2 4 9 9 13 15 16 15 16 18 23 25 25 25 27 28 28 26 27 27 26 27 28 28 28 27 27 25 24 26 27 27 29 28 28 28 28 25 24 23
2 5 4 3 4 5 8 9 9 11 12 13 14 15 17 18 20 25 25 28 28 27 27 27 26 25 26 27 27 26 27 27 27 26 25 25 26 30 29 28 28 28 26 24 23
1 3 3 2 2 5 6 9 9 9 12 11 13 15 14 15 19 21 25 27 28 27 26 26 26 25 26 26 27 25 26 27 26 25 25 26 27 28 28 28 28 27 26 25 23
4 5 5 3 3 4 5 7 8 10 10 11 12 13 14 16 20 22 25 26 27 25 25 25 24 25 27 28 27 26 26 27 26 26 25 26 27 28 29 29 28 27 26 25 24
1 4 5 4 5 6 6 7 8 9 10 10 12 13 13 14 17 19 21 24 25 26 26 25 24 25 25 27 28 26 26 27 27 27 27 27 27 29 29 29 28 27 26 25 24
2 2 1 3 4 5 5 7 8 9 10 9 11 13 13 13 12 13 16 18 21 24 25 24 24 24 23 26 26 26 27 27 27 27 27 26 27 29 29 29 28 27 26 25 24
Height
1528 1527 1525 1523 1520 1519 1520 1519 1518 1517 1516 1515 1514 1513 1512 1509 1508 1509 1507 1510 1509 1511 1512 1516 1518 1519 1519 1516 1514 1511 1508 1500 1491 1486 1484 1484 1487 1487 1490 1495 1495 1498 1500 1502 1503
1524 1523 1521 1519 1516 1519 1519 1515 1516 1515 1514 1512 1510 1510 1509 1506 1504 1502 1506 1502 1504 1505 1511 1512 1512 1515 1514 1512 1508 1507 1502 1494 1486 1483 1486 1487 1485 1482 1484 1488 1490 1495 1499 1500 1503
1520 1519 1518 1517 1516 1515 1512 1511 1512 1511 1510 1509 1508 1509 1508 1506 1503 1496 1495 1495 1497 1500 1507 1509 1508 1509 1508 1505 1501 1499 1497 1492 1488 1489 1487 1486 1485 1481 1483 1484 1483 1486 1490 1495 1499
1515 1514 1513 1512 1511 1510 1509 1509 1508 1506 1507 1506 1506 1508 1507 1508 1500 1489 1492 1490 1491 1495 1503 1504 1503 1502 1500 1496 1494 1492 1492 1492 1490 1489 1485 1485 1483 1483 1484 1484 1484 1488 1491 1492 1495
1509 1509 1508 1507 1507 1506 1505 1505 1505 1505 1504 1503 1505 1505 1505 1502 1491 1492 1492 1484 1489 1492 1496 1497 1496 1495 1492 1490 1488 1486 1489 1490 1485 1483 1482 1482 1482 1482 1482 1481 1484 1487 1488 1489 1491
1503 1503 1502 1502 1502 1501 1500 1499 1500 1500 1499 1500 1503 1502 1501 1495 1486 1489 1487 1487 1491 1492 1492 1494 1491 1490 1489 1486 1483 1484 1482 1481 1479 1477 1479 1480 1479 1480 1480 1480 1484 1485 1485 1486 1488
1501 1499 1496 1495 1495 1494 1494 1494 1495 1494 1495 1497 1497 1495 1493 1480 1485 1485 1484 1485 1487 1488 1489 1490 1491 1490 1488 1482 1480 1478 1479 1476 1475 1474 1474 1476 1478 1473 1478 1478 1476 1480 1482 1482 1483
1497 1495 1493 1490 1490 1489 1489 1490 1490 1490 1489 1490 1491 1492 1480 1476 1478 1477 1480 1481 1482 1484 1486 1486 1489 1487 1483 1481 1477 1475 1473 1477 1464 1462 1469 1477 1478 1463 1469 1473 1474 1475 1476 1477 1479
1491 1490 1489 1487 1485 1484 1482 1483 1484 1483 1483 1485 1488 1487 1474 1468 1466 1466 1473 1474 1478 1481 1481 1483 1483 1482 1482 1477 1474 1471 1477 1469 1461 1456 1464 1470 1473 1461 1463 1466 1468 1469 1469 1471 1476
1488 1486 1484 1483 1481 1479 1478 1478 1479 1478 1478 1481 1483 1487 1467 1456 1458 1459 1462 1467 1471 1476 1479 1479 1477 1474 1474 1471 1475 1468 1463 1457 1461 1450 1458 1464 1463 1458 1457 1459 1460 1460 1463 1465 1471
1484 1482 1481 1479 1478 1477 1476 1477 1478 1474 1471 1462 1457 1453 1448 1451 1455 1453 1456 1459 1466 1468 1466 1468 1466 1463 1457 1456 1455 1452 1451 1451 1445 1446 1452 1456 1459 1456 1453 1452 1451 1452 1453 1459 1465
1480 1479 1478 1476 1475 1473 1473 1475 1470 1469 1461 1455 1451 1448 1448 1450 1448 1448 1452 1456 1457 1452 1457 1457 1452 1448 1452 1453 1453 1451 1452 1453 1449 1447 1451 1456 1458 1452 1449 1445 1444 1444 1446 1454 1462
1475 1475 1474 1472 1470 1469 1469 1469 1468 1469 1459 1438 1435 1434 1439 1445 1439 1439 1443 1447 1446 1447 1443 1441 1439 1445 1443 1445 1447 1446 1452 1452 1454 1447 1447 1455 1455 1443 1436 1437 1438 1440 1444 1449 1457
1472 1471 1471 1469 1469 1466 1465 1466 1467 1468 1450 1415 1412 1409 1423 1434 1425 1432 1433 1439 1436 1435 1435 1432 1431 1431 1436 1437 1438 1447 1441 1447 1451 1457 1465 1447 1460 1442 1433 1430 1431 1433 1439 1446 1452
1468 1467 1467 1467 1465 1465 1465 1466 1467 1467 1442 1378 1386 1399 1401 1408 1407 1411 1423 1430 1426 1425 1429 1420 1424 1424 1428 1430 1429 1438 1437 1442 1447 1458 1457 1453 1456 1438 1426 1426 1428 1427 1430 1439 1448
1463 1463 1463 1465 1464 1461 1463 1466 1466 1452 1419 1379 1377 1388 1392 1399 1401 1400 1412 1422 1425 1420 1416 1415 1414 1414 1415 1419 1427 1432 1438 1443 1445 1452 1466 1449 1448 1437 1423 1423 1426 1426 1429 1437 1445
1458 1458 1458 1461 1462 1462 1461 1464 1450 1417 1378 1369 1372 1379 1379 1385 1396 1394 1403 1410 1409 1421 1413 1409 1404 1407 1408 1421 1423 1430 1443 1460 1471 1464 1462 1431 1440 1431 1421 1421 1424 1425 1428 1435 1443
1452 1452 1453 1456 1459 1460 1459 1455 1426 1381 1371 1352 1361 1371 1375 1373 1386 1388 1392 1400 1399 1399 1398 1408 1416 1398 1398 1410 1419 1427 1436 1447 1471 1455 1435 1422 1444 1426 1416 1421 1425 1428 1431 1435 1443
1446 1447 1449 1451 1454 1457 1459 1443 1403 1375 1369 1366 1358 1364 1369 1363 1369 1381 1377 1381 1383 1384 1391 1394 1396 1391 1397 1406 1410 1419 1433 1426 1436 1427 1433 1423 1415 1413 1416 1418 1420 1425 1432 1437 1442
1440 1441 1442 1446 1449 1453 1454 1431 1401 1393 1380 1367 1369 1358 1362 1358 1364 1366 1372 1366 1374 1378 1379 1373 1397 1379 1391 1403 1405 1406 1415 1437 1431 1456 1456 1427 1422 1422 1418 1415 1418 1424 1431 1437 1443
1437 1436 1434 1440 1446 1448 1443 1423 1410 1404 1391 1392 1375 1365 1353 1351 1351 1353 1353 1353 1363 1368 1377 1375 1379 1382 1383 1396 1400 1406 1410 1417 1419 1423 1437 1441 1421 1399 1407 1412 1417 1419 1429 1436 1441
1432 1433 1429 1433 1441 1438 1430 1412 1418 1406 1396 1398 1395 1387 1373 1349 1343 1350 1347 1345 1347 1359 1372 1365 1377 1382 1380 1379 1389 1392 1401 1406 1424 1435 1421 1417 1414 1399 1409 1412 1416 1417 1427 1435 1440
1430 1428 1431 1433 1430 1428 1417 1413 1417 1411 1401 1406 1394 1393 1380 1370 1363 1338 1341 1338 1340 1350 1355 1366 1374 1389 1383 1387 1384 1392 1392 1398 1405 1411 1418 1426 1419 1396 1404 1411 1415 1416 1424 1432 1439
1431 1428 1430 1430 1427 1424 1418 1405 1405 1410 1402 1405 1399 1394 1392 1380 1361 1348 1333 1335 1336 1342 1350 1364 1364 1372 1371 1372 1379 1395 1390 1392 1402 1414 1418 1410 1403 1400 1404 1408 1411 1417 1422 1430 1437
1430 1425 1423 1424 1423 1423 1422 1414 1406 1397 1403 1401 1398 1394 1387 1373 1356 1346 1330 1333 1334 1341 1346 1356 1367 1364 1361 1358 1370 1379 1386 1386 1392 1399 1409 1405 1403 1396 1395 1400 1405 1412 1420 1427 1433
1432 1427 1424 1422 1419 1418 1413 1408 1405 1400 1399 1397 1390 1389 1384 1378 1365 1352 1345 1333 1330 1338 1341 1349 1362 1362 1367 1361 1359 1374 1376 1380 1382 1386 1394 1397 1397 1388 1392 1397 1401 1407 1416 1423 1428
1429 1429 1430 1423 1419 1416 1414 1406 1402 1400 1394 1403 1396 1388 1386 1383 1387 1375 1364 1354 1344 1335 1338 1349 1355 1367 1372 1360 1361 1367 1362 1370 1377 1378 1383 1395 1393 1387 1390 1395 1398 1404 1411 1417 1423
Wind_Speed
20 21 21 20 19 18 19 19 19 19 21 19 18 17 18 18 19 22 21 16 17 16 20 19 17 18 18 20 21 16 13 15 19 16 10 11 14 8 4 12 8 7 8 3 5
22 23 23 22 21 21 20 19 20 19 20 20 21 20 20 21 20 26 26 28 16 20 20 25 23 20 23 22 24 19 14 21 15 14 12 18 19 20 7 11 11 10 9 6 8
24 24 25 24 24 23 22 22 21 21 21 19 19 20 18 19 20 23 18 18 22 25 25 24 22 23 25 25 24 23 17 18 19 18 16 17 19 11 10 10 12 4 8 14 12
25 25 26 26 25 24 24 24 24 23 22 21 19 18 17 10 8 3 11 12 21 26 27 30 29 28 26 24 26 21 22 24 19 22 17 13 12 11 10 12 7 7 6 9 13
25 25 26 25 25 25 25 25 24 24 23 22 20 17 16 13 25 18 13 3 6 25 30 32 32 33 26 27 25 19 18 25 26 20 18 16 11 13 13 9 7 7 9 12 14
23 23 24 25 25 25 24 24 24 24 24 23 21 18 16 23 16 16 19 17 9 15 24 29 27 31 29 28 22 25 29 23 21 20 19 12 17 5 13 1 5 11 12 13 14
21 23 24 23 24 24 24 24 23 24 24 23 21 17 18 32 8 12 14 21 23 22 19 26 31 27 28 24 26 26 19 20 20 21 17 14 17 16 14 10 11 11 16 16 16
21 21 23 23 20 20 24 23 21 22 22 21 20 16 20 20 23 31 19 15 14 19 27 20 25 34 30 23 25 20 23 19 22 22 15 10 19 14 14 14 14 15 17 15 16
19 21 20 21 23 19 21 22 19 20 20 18 17 15 26 13 28 34 29 31 28 20 21 22 20 33 30 20 19 19 18 22 19 11 13 16 19 19 7 14 16 17 17 16 16
21 20 22 22 23 23 19 15 15 17 16 11 13 8 25 23 21 20 26 33 25 24 22 21 20 19 20 19 21 20 23 20 16 14 11 16 19 19 19 17 20 22 16 16 18
17 19 21 22 21 20 18 13 8 9 25 22 16 24 8 10 14 12 19 23 28 27 24 29 18 24 32 29 24 22 20 16 12 7 14 11 16 20 23 19 22 23 17 16 18
17 16 18 20 21 20 16 11 8 5 11 31 36 34 28 9 11 21 17 23 27 25 25 22 27 27 27 27 27 25 20 19 15 14 10 14 19 21 20 23 22 21 17 13 17
16 16 14 17 19 20 16 16 10 7 11 26 37 41 38 31 29 22 31 29 24 28 29 30 26 27 26 26 26 23 20 17 17 16 11 12 23 22 15 12 16 13 9 12 18
17 15 12 13 11 10 14 13 8 4 7 18 19 32 40 34 34 37 31 34 24 30 28 27 28 26 27 26 24 22 18 19 16 15 13 14 16 15 16 9 10 15 14 13 16
16 15 12 10 12 6 2 3 6 5 8 7 30 9 26 41 9 34 39 35 29 23 25 30 27 29 25 28 25 19 17 16 13 15 18 19 11 16 10 10 6 8 15 14 17
18 14 13 11 14 17 8 7 5 9 13 9 14 16 20 38 38 11 46 36 31 27 27 30 34 24 26 22 18 20 16 15 11 11 15 18 15 15 9 4 4 3 4 14 17
19 15 18 13 14 11 14 11 8 14 16 14 18 18 25 23 33 27 31 31 27 27 28 27 32 26 18 22 22 16 13 11 12 13 13 17 11 10 14 4 5 4 3 10 16
19 19 19 17 13 12 8 13 16 22 33 6 21 21 28 23 32 31 28 29 33 29 16 23 26 29 21 25 23 22 20 12 15 13 13 11 7 5 4 2 4 4 3 10 16
17 19 17 18 16 14 12 14 21 24 22 32 14 18 26 28 17 31 30 33 34 33 26 24 27 25 25 24 25 18 21 21 20 17 11 6 7 9 6 10 8 5 4 11 18
17 20 19 18 17 17 6 24 29 26 26 23 33 20 22 28 23 33 30 33 34 35 28 16 18 23 27 20 27 23 20 19 14 17 16 13 10 4 10 5 8 7 8 15 21
17 6 10 20 22 13 8 20 29 38 36 17 21 20 26 27 28 23 28 19 35 36 32 28 18 22 26 24 26 21 20 15 15 13 11 10 8 8 6 5 2 9 12 21 23
12 3 12 28 9 4 13 29 32 31 35 18 20 22 26 25 24 29 31 31 30 32 37 33 13 17 29 26 25 26 26 22 10 18 12 12 3 10 7 5 6 9 15 21 22
5 7 8 18 7 13 19 28 30 27 29 26 19 18 24 24 22 27 30 30 21 30 34 26 17 17 22 20 24 25 23 21 19 14 15 12 12 6 10 5 7 5 15 22 23
2 2 5 13 7 11 16 21 21 26 30 23 28 18 22 23 24 18 27 27 28 21 33 25 20 26 20 25 22 25 25 25 22 16 16 16 15 13 13 12 11 6 15 21 24
4 4 4 3 11 13 16 16 20 22 21 27 23 26 24 22 19 23 21 26 20 20 21 26 26 26 26 20 25 23 26 27 27 23 21 18 18 16 10 12 13 14 14 19 26
3 4 5 16 13 9 11 15 18 20 7 18 24 23 21 19 17 18 16 17 23 21 25 22 24 24 26 26 24 27 25 26 27 25 23 22 18 14 12 12 13 17 13 19 26
6 4 5 5 6 5 8 7 10 15 20 22 23 22 24 23 19 35 27 26 24 24 24 23 20 23 22 24 26 23 28 27 24 23 22 21 20 14 10 15 8 12 13 20 25
Wind_Direction
282 278 276 277 277 279 280 278 281 283 285 289 293 291 291 290 288 286 261 243 229 227 212 198 200 210 215 229 232 243 259 263 269 286 301 303 279 287 218 280 237 264 276 307 185
277 279 279 278 276 274 275 276 276 277 278 282 288 294 294 297 293 276 271 257 246 229 216 202 202 212 222 232 236 235 248 259 285 302 302 300 295 297 248 256 238 236 249 234 215
275 273 273 274 275 276 278 278 277 277 278 276 279 283 286 299 302 275 260 258 239 228 215 215 216 219 230 232 234 230 246 271 284 287 289 310 290 297 288 274 301 277 257 203 218
280 277 273 271 271 272 272 271 276 279 279 279 280 281 281 277 264 301 276 245 225 220 213 222 222 227 226 236 235 243 244 268 276 271 273 279 302 297 278 273 310 298 278 226 226
281 279 278 277 274 271 268 266 268 271 274 277 279 281 279 252 244 270 280 286 211 211 215 220 221 223 228 237 246 234 252 254 261 260 261 273 274 271 290 296 284 261 245 239 232
297 288 280 276 276 277 275 273 272 271 271 270 270 271 272 259 258 249 256 243 208 205 219 224 227 226 239 242 243 236 237 252 259 254 256 238 264 191 271 271 276 257 252 246 236
295 300 296 281 273 274 276 276 277 275 271 269 271 274 257 243 254 245 235 232 232 229 231 229 232 235 237 249 246 253 255 258 255 254 251 240 255 243 254 214 246 254 244 241 229
287 293 297 296 288 276 269 267 270 271 271 270 268 269 258 255 254 236 225 222 225 232 232 232 230 239 241 246 254 246 244 254 250 227 226 217 257 259 226 246 256 256 242 242 230
276 283 289 295 298 290 271 267 269 270 269 263 259 238 260 261 233 238 232 237 239 238 223 227 234 227 236 244 240 226 245 242 249 182 224 208 260 280 235 275 269 274 264 240 223
284 281 279 286 293 298 285 281 272 266 261 249 231 234 252 238 240 242 229 225 222 218 221 218 224 220 227 225 230 226 232 232 251 218 196 255 254 258 252 252 266 267 246 240 220
306 292 287 280 282 292 302 315 264 235 210 211 203 210 262 221 222 221 214 210 211 220 210 210 216 210 213 222 227 247 262 270 275 279 250 259 273 282 288 278 270 270 241 236 217
291 297 291 284 278 279 288 247 285 301 274 239 245 239 243 233 238 225 197 199 200 210 202 207 222 218 218 223 232 243 255 261 260 269 272 282 285 284 288 272 278 268 237 223 207
295 291 293 289 278 276 265 240 259 287 259 254 236 235 226 231 234 231 203 202 202 212 204 216 213 221 222 225 226 229 243 251 259 275 257 282 269 264 265 269 265 254 240 220 204
302 288 298 297 279 281 250 253 234 257 269 253 212 238 223 216 237 225 215 208 226 214 214 220 227 213 223 224 226 234 227 247 266 272 264 268 291 293 276 273 267 226 214 229 194
292 278 272 261 275 271 167 211 232 221 259 239 202 192 202 197 169 208 209 206 220 206 213 221 220 221 213 225 223 236 241 248 234 254 269 264 265 279 264 249 268 239 213 186 187
288 273 254 262 252 239 278 272 235 224 231 229 146 186 188 201 215 216 197 209 219 229 223 231 215 224 225 214 219 233 227 252 262 256 256 257 258 267 279 100 303 271 113 160 179
280 270 235 236 251 239 246 232 210 224 213 226 183 189 198 192 202 220 187 198 205 208 218 215 228 212 211 210 216 213 213 223 228 232 248 246 240 278 296 306 291 322 156 162 175
269 255 240 235 237 237 247 216 231 220 225 231 182 198 205 189 203 211 187 201 208 208 201 209 213 212 195 212 204 200 211 224 215 233 249 139 236 276 215 22 263 267 298 147 171
260 247 236 230 219 215 225 224 220 232 215 247 194 204 210 197 193 205 204 206 201 205 224 203 217 204 200 204 220 190 216 224 259 286 291 236 235 191 193 228 200 152 176 163 170
248 233 228 219 208 201 232 235 239 255 277 264 237 233 213 209 207 196 197 211 211 211 217 209 212 219 193 203 220 212 201 219 230 247 261 241 237 236 178 191 105 149 171 161 165
237 185 213 205 194 193 218 230 237 258 273 317 315 280 241 215 204 203 209 203 206 204 217 232 212 198 188 197 205 205 226 206 245 223 235 248 266 106 139 135 346 145 165 168 169
169 206 172 183 183 193 229 227 246 257 256 288 301 292 280 262 220 218 215 211 196 208 205 217 215 226 202 196 213 212 211 208 214 222 251 270 240 106 175 216 177 153 165 173 174
208 211 178 186 215 225 243 244 243 266 263 265 271 296 302 299 283 224 230 224 189 201 201 204 211 219 195 205 201 224 211 216 223 243 231 224 243 202 150 171 191 192 168 176 177
89 253 200 209 233 262 276 258 248 248 252 265 277 276 285 279 269 267 215 228 229 199 203 202 210 212 209 200 190 208 222 206 217 216 231 238 256 151 182 193 177 204 166 180 183
242 262 266 227 233 239 254 286 281 249 245 260 248 259 266 272 261 249 233 220 205 206 202 193 218 211 228 206 197 205 213 218 214 218 222 228 235 251 233 193 200 171 171 188 188
296 273 278 284 260 263 247 254 259 274 225 249 245 250 274 288 304 293 291 247 204 207 201 189 215 215 218 228 206 205 212 221 223 221 223 232 242 230 209 234 188 164 181 192 194
233 245 279 250 298 272 253 252 296 286 263 239 265 253 247 263 318 300 310 297 296 203 191 187 205 212 223 214 228 220 208 213 221 225 222 222 228 236 214 212 209 179 186 198 196